Regional Weather Roundup
Issued by NWS

Home | Current Version | Previous Version | Text Only | Print | Product List | Glossary On
Versions: 1 2 3 4 5 6 7 8 9 10 11 12 13 14 15 16 17 18 19 20 21 22 23 24 25 26 27 28 29 30 31 32 33 34 35 36 37 38 39 40 41 42 43 44 45 46 47 48 49 50
890
ASUS44 KFWD 241001
RWRTX
NORTH TEXAS HOURLY WEATHER ROUNDUP
NATIONAL WEATHER SERVICE FORT WORTH TX
500 AM CDT TUE OCT 24 2017

NOTE: "FAIR" INDICATES FEW OR NO CLOUDS BELOW 12,000 FEET WITH NO
SIGNIFICANT WEATHER AND/OR OBSTRUCTIONS TO VISIBILITY.

TXZ118-119-241100-
DALLAS/FORT WORTH METROPLEX

CITY           SKY/WX    TMP DP  RH WIND       PRES   REMARKS
DFW AIRPORT    MOCLDY    56  41  57 N9        30.28R
DALLAS LOVE    PTCLDY    57  41  55 N7        30.29R
FTW MEACHAM    CLEAR     56  38  50 NW6       30.30R
DAL-EXECUTIVE  CLEAR     55  42  61 NW7       30.28R
FTW-ALLIANCE   CLEAR     54  37  52 N8        30.29S
ARLINGTON      CLEAR     56  39  53 NW12      30.29R
GRAND PRAIRIE  CLEAR     59  35  41 NW6       30.31R
ADDISON        PTCLDY    56  40  53 N5        30.30S
MESQUITE       CLEAR     55  38  53 NW6       30.28R
LANCASTER      CLEAR     55  40  57 NW6       30.29R
$$

TXZ091>094-102>105-117-120-121-131>134-241100-
NORTH CENTRAL TEXAS

CITY           SKY/WX    TMP DP  RH WIND       PRES   REMARKS
SHRMAN/DENISON CLOUDY    57  35  43 N8        30.30R
GAINESVILLE    CLOUDY    54  36  50 NW8       30.32R
BOWIE          CLOUDY    52  39  61 NW7       30.33R
BRIDGEPORT     CLEAR     56  40  54 N5        30.34S
DENTON         CLOUDY    54  39  57 NW6       30.30R HAZE
MCKINNEY       CLOUDY    56  40  55 NW8       30.28R
BONHAM         CLOUDY    57  33  39 N8        30.27R
ROCKWALL       CLEAR     56  41  58 NW5       30.28S
TERRELL        CLEAR     58  38  47 NW8       30.27R
WAXAHACHIE     CLEAR     53  42  66 NW7       30.30R
CLEBURNE       CLEAR     54  39  58 N9        30.32R HAZE
$$

TXZ083>090-098>101-113>116-127>130-139>142-154-155-241100-
WESTERN NORTH TEXAS

CITY           SKY/WX    TMP DP  RH WIND       PRES   REMARKS
WICHITA FALLS  CLOUDY    53  38  56 NW8       30.34R
WF-KICKAPOO    CLOUDY    54  38  53 NW8       30.37R
VERNON         CLOUDY    54  29  38 NW12      30.38S
ABILENE        CLEAR     48  43  82 N6        30.39R
ABILENE-DYESS  CLEAR     48  40  75 NW6       30.39R
BRECKENRIDGE   CLEAR     52  40  64 N7        30.36S
CISCO          CLEAR     50  39  66 NW7       30.37R
EASTLAND       CLEAR     47  40  76 NW6       30.36R
RANGER         CLEAR     51  39  64 N8        30.35R
MINERAL WELLS  CLEAR     51  38  60 W6        30.32R
STEPHENVILLE   CLEAR     55  37  50 N9        30.35R
COMANCHE       CLEAR     52  39  61 NW7       30.34R
BROWNWOOD      CLEAR     50  37  62 NW5       30.35R
COLEMAN        CLEAR     52  37  55 N9        30.36R
$$

TXZ143>147-156>162-174-175-241100-
CENTRAL TEXAS

CITY           SKY/WX    TMP DP  RH WIND       PRES   REMARKS
WACO           CLEAR     55  43  63 NW8       30.28R
WACO-MCGREGOR  PTCLDY    56  44  64 NW5       30.29R
HILLSBORO      CLEAR     49  45  83 N7        30.28S
CORSICANA      CLEAR     56  42  59 N8        30.27R
MEXIA          CLEAR     56  38  52 N6        30.25R
HEARNE         CLEAR     52  49  91 NW5       30.26R
CAMERON        CLEAR     56  46  69 N5        30.26S
TEMPLE         CLEAR     57  45  64 N8        30.27
KILLEEN        CLEAR     57  40  53 W6        30.29R
KILLEEN-SKYLRK CLEAR     57  43  59 VRB3      30.29R
FORT HOOD      CLEAR     58  41  54 N10       30.25R
GATESVILLE     CLEAR     57  39  51 CALM      30.32R
HAMILTON       CLEAR     51  40  64 N7        30.32R
LAMPASAS       CLEAR     55  45  67 N3        30.30R
$$

TXZ095>097-106>112-122>126-135>138-148>153-164>167-241100-
EAST TEXAS

CITY           SKY/WX    TMP DP  RH WIND       PRES   REMARKS
PARIS          CLOUDY    53  37  54 NW10      30.25R
GILMER         CLOUDY    56  40  54 NW5       30.22S
MINEOLA        CLEAR     57  39  51 NW7       30.25R
TYLER          CLEAR     54  40  59 N6        30.24R
LONGVIEW       CLEAR     53  45  74 NW6       30.21R
MARSHALL       CLEAR     56  40  53 N8        30.22R
ATHENS         CLEAR     54  36  50 N3        30.25R
PALESTINE      PTCLDY    63  49  61 NW5       30.25R
JACKSONVILLE   CLEAR     58  40  51 N5        30.24R
CENTER         SUNNY     58  47  67 NW3       30.20R
NACOGDOCHES    CLEAR     50  48  93 CALM      30.22R
LUFKIN         CLEAR     55  47  74 CALM      30.20R
$$

SUPPLEMENTAL OBSERVATIONS (NWS FORT WORTH AREA)

CITY           SKY/WX    TMP DP  RH WIND       PRES   REMARKS
$$

SUPPLEMENTAL OBSERVATIONS (NWS NORMAN AREA)

CITY           SKY/WX    TMP DP  RH WIND       PRES   REMARKS
GOODLETT         N/A     51  29  42 NW10      30.40S
ODELL            N/A     47  35  61 NW6       30.39S
CROWELL          N/A     51  28  41 NW8       30.40S
KNOX CITY        N/A     50  29  43 N8        30.41R
SEYMOUR          N/A     51  34  53 NW12      30.38S
$$

SUPPLEMENTAL OBSERVATIONS (NWS SAN ANGELO AREA)

CITY           SKY/WX    TMP DP  RH WIND       PRES   REMARKS
WEINERT          N/A     48  35  60 NW7       30.40R
HASKELL          N/A     44  36  73 NW8       30.40R WCI  40
THROCKMORTON     N/A     51  39  62 NW7       30.38S
STAMFORD         N/A     47  38  70 NW7       30.40S
CLYDE            N/A     48  34  58 NW3       30.39S
$$

SUPPLEMENTAL OBSERVATIONS (NWS SHREVEPORT AREA)

CITY           SKY/WX    TMP DP  RH WIND       PRES   REMARKS
$$

SUPPLEMENTAL OBSERVATIONS ARE A COLLECTION OF AUTOMATED INSTRUMENTS
THAT ARE MAINTAINED BY A VARIETY OF FEDERAL AND STATE AGENCIES.
CERTAIN ELEMENTS...SUCH AS HUMIDITY VALUES AND SUSTAINED WIND
SPEEDS...MAY BE APPROXIMATED.





USA.gov is the U.S. government's official web portal to all federal, state and local government web resources and services.